Weather History for Reidsville, NC

Change the Weather History Date:

Friday, May 11, 2012

  Actual Average (KGSO) Record (KGSO)
Temperature  
Mean Temperature 54 °F 65 °F  
Max Temperature 71 °F 76 °F 92 °F (1916)
Min Temperature 38 °F 55 °F 34 °F (1977)
Degree Days  
Heating Degree Days 10 3  
Month to date heating degree days 37  
Since 1 July heating degree days 3583  
Cooling Degree Days 0 3  
Month to date cooling degree days 26  
Year to date cooling degree days 64  
Growing Degree Days 4 (Base 50)    
Moisture  
Dew Point 41 °F    
Average Humidity 63    
Maximum Humidity 99    
Minimum Humidity 29    
Precipitation  
Precipitation 0.00 in 0.10 in 1.70 in (1950)
Month to date precipitation 1.14  
Year to date precipitation 14.46  
Sea Level Pressure  
Sea Level Pressure 30.15 in    
Wind  
Wind Speed 1 mph (North)    
Max Wind Speed 7 mph    
Max Gust Speed -    
Visibility 10 miles    
Events      
T = Trace of Precipitation, MM = Missing Value Source: NWS Daily Summary

Daily Weather History Graph

Daily Weather History Graph

Search for Another Location

Airport:

Trip Planner

Search our weather history database for the weather conditions in past years. The results will help you decide how hot, cold, wet, or windy it might be!

Date:

Astronomy

May. 11, 2012 Rise Set
Actual Time 6:15 AM EDT 8:16 PM EDT
Civil Twilight 5:47 AM EDT 8:44 PM EDT
Nautical Twilight 5:12 AM EDT 9:19 PM EDT
Astronomical Twilight 4:35 AM EDT 9:57 PM EDT
Moon 12:56 AM EDT (5/11) 11:44 AM EDT (5/11)
Length of Visible Light 14h 57m
Length of Day
14h 00m
Waning Gibbous, 63% of the Moon is Illuminated
May 11
Waning Gibbous
May 12
Last Quarter
May 20
New
May 28
First Quarter
Jun 4
Full

Hourly Weather History & Observations

Time (EDT) Temp. Dew Point Humidity Pressure Visibility Wind Dir Wind Speed Gust Speed Precip Events Conditions
12:15 AM 57.2 °F 41.5 °F 56% 30.01 in 10.0 mi NNW 3.5 mph - N/A   Clear
12:35 AM 57.2 °F 40.3 °F 53% 30.02 in 10.0 mi NW 3.5 mph - N/A   Clear
1:15 AM 54.1 °F 40.5 °F 60% 30.02 in 10.0 mi Calm Calm - N/A   Clear
1:35 AM 51.3 °F 43.0 °F 73% 30.03 in 10.0 mi Calm Calm - N/A   Clear
2:15 AM 45.9 °F 43.9 °F 93% 30.03 in 10.0 mi Calm Calm - N/A   Clear
2:35 AM 44.6 °F 42.8 °F 93% 30.03 in 10.0 mi Calm Calm - N/A   Clear
2:55 AM 44.8 °F 43.3 °F 95% 30.03 in 10.0 mi Calm Calm - N/A   Clear
3:15 AM 44.4 °F 42.4 °F 93% 30.04 in 10.0 mi Calm Calm - N/A   Clear
3:35 AM 41.9 °F 40.5 °F 95% 30.04 in 10.0 mi Calm Calm - N/A   Clear
3:55 AM 41.5 °F 40.6 °F 97% 30.05 in 10.0 mi Calm Calm - N/A   Clear
4:15 AM 41.0 °F 40.1 °F 97% 30.06 in 10.0 mi Calm Calm - N/A   Clear
4:35 AM 40.1 °F 39.2 °F 97% 30.06 in 10.0 mi Calm Calm - N/A   Clear
4:55 AM 40.1 °F 39.4 °F 97% 30.07 in 7.0 mi Calm Calm - N/A   Clear
5:15 AM 39.9 °F 39.4 °F 98% 30.08 in 10.0 mi Calm Calm - N/A   Clear
5:35 AM 39.9 °F 39.4 °F 98% 30.09 in 10.0 mi Calm Calm - N/A   Clear
6:35 AM 39.2 °F 38.7 °F 98% 30.11 in 5.0 mi Calm Calm - N/A   Clear
6:55 AM 38.3 °F 37.8 °F 98% 30.13 in 7.0 mi Calm Calm - N/A   Clear
7:15 AM 41.5 °F 41.4 °F 99% 30.14 in 7.0 mi Calm Calm - N/A   Clear
7:35 AM 44.4 °F 43.9 °F 98% 30.14 in 10.0 mi Calm Calm - N/A   Clear
7:55 AM 47.3 °F 46.2 °F 96% 30.15 in 10.0 mi Calm Calm - N/A   Clear
8:15 AM 49.8 °F 46.6 °F 89% 30.16 in 10.0 mi Calm Calm - N/A   Clear
8:35 AM 52.7 °F 46.6 °F 80% 30.16 in 10.0 mi Calm Calm - N/A   Clear
8:55 AM 54.9 °F 44.6 °F 68% 30.17 in 10.0 mi North 3.5 mph - N/A   Clear
9:15 AM 56.5 °F 43.7 °F 62% 30.18 in 10.0 mi Calm Calm - N/A   Clear
9:35 AM 58.1 °F 43.3 °F 58% 30.18 in 10.0 mi Calm Calm - N/A   Clear
9:55 AM 59.5 °F 43.7 °F 56% 30.19 in 10.0 mi Calm Calm - N/A   Clear
10:15 AM 61.2 °F 41.7 °F 49% 30.19 in 10.0 mi NNE 5.8 mph - N/A   Clear
10:35 AM 62.4 °F 39.6 °F 43% 30.19 in 10.0 mi NE 6.9 mph - N/A   Clear
10:55 AM 63.5 °F 39.2 °F 41% 30.19 in 10.0 mi North 4.6 mph - N/A   Clear
11:15 AM 64.4 °F 38.5 °F 38% 30.19 in 10.0 mi NE 5.8 mph - N/A   Clear
11:35 AM 64.9 °F 35.8 °F 34% 30.19 in 10.0 mi NNE 6.9 mph - N/A   Clear
11:55 AM 65.3 °F 35.1 °F 33% 30.19 in 10.0 mi NNE 3.5 mph - N/A   Clear
12:15 PM 65.5 °F 36.0 °F 34% 30.19 in 10.0 mi Calm Calm - N/A   Clear
12:35 PM 66.2 °F 35.8 °F 32% 30.18 in 10.0 mi Calm Calm - N/A   Clear
12:55 PM 66.6 °F 34.7 °F 31% 30.18 in 10.0 mi Calm Calm - N/A   Clear
1:15 PM 66.9 °F 36.1 °F 32% 30.18 in 10.0 mi Calm Calm - N/A   Clear
1:35 PM 67.6 °F 35.6 °F 31% 30.18 in 10.0 mi Calm Calm - N/A   Clear
1:55 PM 67.6 °F 34.3 °F 29% 30.18 in 10.0 mi Calm Calm - N/A   Clear
2:15 PM 68.0 °F 34.5 °F 29% 30.19 in 10.0 mi Calm Calm - N/A   Clear
2:35 PM 68.7 °F 36.0 °F 30% 30.19 in 10.0 mi Calm Calm - N/A   Clear
2:55 PM 69.3 °F 36.1 °F 30% 30.18 in 10.0 mi Calm Calm - N/A   Clear
3:15 PM 69.8 °F 36.9 °F 30% 30.18 in 10.0 mi West 3.5 mph - N/A   Clear
3:35 PM 69.8 °F 35.8 °F 29% 30.17 in 10.0 mi Calm Calm - N/A   Clear
3:55 PM 70.2 °F 36.7 °F 29% 30.17 in 10.0 mi Calm Calm - N/A   Clear
4:15 PM 70.2 °F 36.5 °F 29% 30.17 in 10.0 mi Calm Calm - N/A   Clear
4:35 PM 70.3 °F 37.0 °F 30% 30.17 in 10.0 mi Calm Calm - N/A   Clear
4:55 PM 71.1 °F 38.1 °F 30% 30.16 in 10.0 mi Calm Calm - N/A   Clear
5:15 PM 71.2 °F 37.9 °F 30% 30.16 in 10.0 mi Calm Calm - N/A   Clear
5:55 PM 71.1 °F 37.4 °F 29% 30.16 in 10.0 mi Calm Calm - N/A   Clear
6:15 PM 71.1 °F 37.0 °F 29% 30.16 in 10.0 mi Calm Calm - N/A   Clear
6:35 PM 71.2 °F 37.6 °F 29% 30.16 in 10.0 mi South 3.5 mph - N/A   Clear
6:55 PM 70.9 °F 37.8 °F 30% 30.17 in 10.0 mi South 3.5 mph - N/A   Clear
7:15 PM 70.2 °F 40.1 °F 34% 30.17 in 10.0 mi South 3.5 mph - N/A   Clear
7:35 PM 68.9 °F 42.3 °F 38% 30.18 in 10.0 mi SSW 3.5 mph - N/A   Clear
7:55 PM 64.6 °F 46.8 °F 52% 30.19 in 10.0 mi Calm Calm - N/A   Clear
8:15 PM 57.7 °F 50.4 °F 76% 30.19 in 10.0 mi Calm Calm - N/A   Clear
8:35 PM 54.5 °F 49.8 °F 84% 30.19 in 10.0 mi Calm Calm - N/A   Clear
8:55 PM 52.0 °F 48.7 °F 89% 30.20 in 10.0 mi Calm Calm - N/A   Clear
9:15 PM 50.9 °F 47.7 °F 89% 30.21 in 10.0 mi Calm Calm - N/A   Clear
9:35 PM 49.5 °F 46.8 °F 90% 30.21 in 10.0 mi Calm Calm - N/A   Clear
9:55 PM 48.6 °F 46.4 °F 92% 30.22 in 10.0 mi Calm Calm - N/A   Clear
10:15 PM 47.7 °F 45.7 °F 93% 30.22 in 10.0 mi Calm Calm - N/A   Clear
10:35 PM 47.5 °F 45.7 °F 93% 30.23 in 10.0 mi Calm Calm - N/A   Clear
10:55 PM 46.8 °F 45.1 °F 94% 30.24 in 10.0 mi Calm Calm - N/A   Clear
11:15 PM 45.7 °F 44.2 °F 95% 30.24 in 10.0 mi Calm Calm - N/A   Clear
11:35 PM 45.0 °F 43.9 °F 96% 30.24 in 10.0 mi Calm Calm - N/A   Clear
11:55 PM 44.4 °F 43.5 °F 97% 30.24 in 10.0 mi Calm Calm - N/A   Clear